Gadsden, AL

12:22 AM CDT on March 24, 2017 (GMT -0500)
Gadsden Municipal

Weather History for KGAD - July, 2014

Change the Weather History Date:

Monday, July 14, 2014

  Actual Average Record
Temperature  
Mean Temperature 82 °F -  
Max Temperature 93 °F 86 °F 99 °F (1939)
Min Temperature 71 °F 66 °F 60 °F (2001)
Cooling Degree Days 17    
Growing Degree Days 32 (Base 50)    
Moisture  
Dew Point 70 °F    
Average Humidity 72    
Maximum Humidity 94    
Minimum Humidity 44    
Precipitation  
Precipitation 4.51 in - - ()
Sea Level Pressure  
Sea Level Pressure 30.00 in    
Wind  
Wind Speed 3 mph (SW)    
Max Wind Speed 13 mph    
Max Gust Speed 20 mph    
Visibility 9 miles    
Events Thunderstorm    
Averages and records for this station are not official NWS values.
T = Trace of Precipitation, MM = Missing Value Source: NWS Daily Summary

Daily Weather History Graph

Daily Weather History Graph

Search for Another Location

Airport or City:

Trip Planner

Search our weather history database for the weather conditions in past years. The results will help you decide how hot, cold, wet, or windy it might be!

Date:

Astronomy

Jul. 14, 2014 Rise Set
Actual Time 5:43 AM CDT 7:56 PM CDT
Civil Twilight 5:15 AM CDT 8:25 PM CDT
Nautical Twilight 4:40 AM CDT 8:59 PM CDT
Astronomical Twilight 4:02 AM CDT 9:37 PM CDT
Moon 9:36 PM CDT (7/14) 8:16 AM CDT (7/14)
Length of Visible Light 15h 09m
Length of Day
14h 12m
Waning Gibbous, 93% of the Moon is Illuminated
Jul 14
Waning Gibbous
Jul 18
Last Quarter
Jul 26
New
Aug 3
First Quarter
Aug 10
Full

Hourly Weather History & Observations

Time (CDT) Temp. Heat Index Dew Point Humidity Pressure Visibility Wind Dir Wind Speed Gust Speed Precip Events Conditions
12:35 AM 75.2 °F - 69.8 °F 83% 30.04 in 10.0 mi WSW 3.5 mph - N/A   Overcast
12:55 AM 75.2 °F - 69.8 °F 83% 30.04 in 10.0 mi Calm Calm - N/A   Mostly Cloudy
1:15 AM 75.2 °F - 69.8 °F 83% 30.03 in 10.0 mi Calm Calm - N/A   Overcast
1:35 AM 75.2 °F - 69.8 °F 83% 30.03 in 10.0 mi Calm Calm - N/A   Partly Cloudy
1:55 AM 75.2 °F - 69.8 °F 83% 30.03 in 10.0 mi WSW 3.5 mph - N/A   Partly Cloudy
2:15 AM 75.2 °F - 66.2 °F 73% 30.02 in 10.0 mi Calm Calm - N/A   Partly Cloudy
2:35 AM 75.2 °F - 68.0 °F 78% 30.02 in 10.0 mi Calm Calm - N/A   Mostly Cloudy
2:55 AM 75.2 °F - 69.8 °F 83% 30.03 in 10.0 mi Calm Calm - N/A   Scattered Clouds
3:15 AM 75.2 °F - 69.8 °F 83% 30.03 in 10.0 mi Calm Calm - N/A   Clear
3:35 AM 75.2 °F - 68.0 °F 78% 30.03 in 10.0 mi Calm Calm - N/A   Scattered Clouds
3:55 AM 75.2 °F - 68.0 °F 78% 30.03 in 10.0 mi Calm Calm - N/A   Overcast
4:15 AM 73.4 °F - 68.0 °F 83% 30.03 in 10.0 mi Calm Calm - N/A   Mostly Cloudy
4:35 AM 73.4 °F - 68.0 °F 83% 30.03 in 10.0 mi Calm Calm - N/A   Scattered Clouds
4:55 AM 73.4 °F - 68.0 °F 83% 30.03 in 10.0 mi Calm Calm - N/A   Scattered Clouds
5:15 AM 73.4 °F - 68.0 °F 83% 30.03 in 10.0 mi Calm Calm - N/A   Partly Cloudy
5:35 AM 73.4 °F - 68.0 °F 83% 30.04 in 10.0 mi Calm Calm - N/A   Clear
5:55 AM 71.6 °F - 68.0 °F 88% 30.04 in 10.0 mi Calm Calm - N/A   Clear
6:15 AM 73.4 °F - 69.8 °F 88% 30.04 in 10.0 mi Calm Calm - N/A   Clear
6:35 AM 73.4 °F - 69.8 °F 88% 30.04 in 10.0 mi SSW 3.5 mph - N/A   Clear
6:55 AM 75.2 °F - 69.8 °F 83% 30.05 in 10.0 mi Calm Calm - N/A   Clear
7:15 AM 75.2 °F - 69.8 °F 83% 30.05 in 10.0 mi Calm Calm - N/A   Clear
7:35 AM 77.0 °F - 71.6 °F 83% 30.06 in 10.0 mi SW 3.5 mph - N/A   Clear
7:55 AM 78.8 °F - 71.6 °F 78% 30.06 in 10.0 mi WSW 5.8 mph - N/A   Clear
8:15 AM 80.6 °F 84.6 °F 71.6 °F 74% 30.06 in 10.0 mi SW 6.9 mph - N/A   Clear
8:55 AM 82.4 °F 87.2 °F 71.6 °F 70% 30.05 in 10.0 mi SW 4.6 mph - N/A   Clear
9:15 AM 82.4 °F 88.2 °F 73.4 °F 74% 30.05 in 10.0 mi SW 5.8 mph - N/A   Clear
9:35 AM 84.2 °F 90.9 °F 73.4 °F 70% 30.05 in 10.0 mi Calm Calm - N/A   Clear
9:55 AM 86.0 °F 93.4 °F 73.4 °F 66% 30.05 in 10.0 mi West 6.9 mph - N/A   Clear
10:15 AM 87.8 °F 95.6 °F 73.4 °F 62% 30.04 in 10.0 mi SW 5.8 mph - N/A   Partly Cloudy
10:35 AM 87.8 °F 93.8 °F 71.6 °F 58% 30.04 in 10.0 mi WSW 9.2 mph - N/A   Mostly Cloudy
10:55 AM 87.8 °F 93.8 °F 71.6 °F 58% 30.03 in 10.0 mi SW 6.9 mph - N/A   Mostly Cloudy
11:15 AM 89.6 °F 96.2 °F 71.6 °F 55% 30.03 in 10.0 mi WSW 8.1 mph - N/A   Mostly Cloudy
11:35 AM 89.6 °F 96.2 °F 71.6 °F 55% 30.03 in 10.0 mi SW 10.4 mph 16.1 mph N/A   Mostly Cloudy
11:55 AM 91.4 °F 98.4 °F 71.6 °F 52% 30.02 in 10.0 mi WSW 9.2 mph - N/A   Mostly Cloudy
12:15 PM 91.4 °F 98.4 °F 71.6 °F 52% 30.01 in 10.0 mi SSW 12.7 mph 16.1 mph N/A   Scattered Clouds
12:35 PM 91.4 °F 96.8 °F 69.8 °F 49% 30.01 in 10.0 mi WSW 12.7 mph 18.4 mph N/A   Scattered Clouds
12:55 PM 91.4 °F 98.4 °F 71.6 °F 52% 30.00 in 10.0 mi SW 10.4 mph - N/A Thunderstorm Scattered Clouds
1:15 PM 89.6 °F 96.2 °F 71.6 °F 55% 30.00 in 10.0 mi West 8.1 mph - N/A Thunderstorm Clear
1:35 PM 89.6 °F 94.7 °F 69.8 °F 52% 29.99 in 10.0 mi SW 5.8 mph - N/A   Partly Cloudy
1:55 PM 89.6 °F 96.2 °F 71.6 °F 55% 29.98 in 10.0 mi SSE 5.8 mph - N/A   Scattered Clouds
2:15 PM 91.4 °F 98.4 °F 71.6 °F 52% 29.96 in 10.0 mi SSE 10.4 mph - N/A   Partly Cloudy
2:35 PM 91.4 °F 98.4 °F 71.6 °F 52% 29.95 in 10.0 mi South 6.9 mph - N/A   Partly Cloudy
3:15 PM 93.2 °F 98.8 °F 69.8 °F 46% 29.94 in 10.0 mi SW 9.2 mph 16.1 mph N/A   Partly Cloudy
3:55 PM 93.2 °F 97.7 °F 68.0 °F 44% 29.92 in 10.0 mi SW 9.2 mph - N/A   Scattered Clouds
4:35 PM 89.6 °F 94.7 °F 69.8 °F 52% 29.91 in 10.0 mi SSW 9.2 mph - N/A   Scattered Clouds
5:35 PM 89.6 °F 96.2 °F 71.6 °F 55% 29.90 in 10.0 mi South 5.8 mph - N/A   Clear
5:55 PM 89.6 °F 96.2 °F 71.6 °F 55% 29.89 in 10.0 mi South 9.2 mph - N/A   Partly Cloudy
6:15 PM 87.8 °F 93.8 °F 71.6 °F 58% 29.90 in 10.0 mi South 4.6 mph - N/A   Partly Cloudy
6:35 PM 87.8 °F 92.6 °F 69.8 °F 55% 29.90 in 10.0 mi SW 4.6 mph - N/A Thunderstorm Clear
6:55 PM 86.0 °F 90.4 °F 69.8 °F 58% 29.91 in 10.0 mi NW 3.5 mph - N/A Thunderstorm Mostly Cloudy
7:15 PM 82.4 °F 84.6 °F 66.2 °F 58% 29.94 in 10.0 mi NNW 10.4 mph 19.6 mph N/A Thunderstorm Thunderstorm
7:35 PM 77.0 °F - 69.8 °F 78% 29.94 in 6.0 mi North 3.5 mph 17.3 mph 0.10 in Thunderstorm Thunderstorm
7:55 PM 75.2 °F - 69.8 °F 83% 29.95 in 8.0 mi North 3.5 mph - 0.11 in Thunderstorm Mostly Cloudy
8:15 PM 75.2 °F - 68.0 °F 78% 29.95 in 4.0 mi Calm Calm - 0.40 in Thunderstorm Thunderstorm
8:35 PM 75.2 °F - 71.6 °F 89% 29.94 in 9.0 mi Calm Calm - 0.44 in Thunderstorm Thunderstorm
8:55 PM 73.4 °F - 69.8 °F 88% 29.94 in 9.0 mi Calm Calm - 0.45 in Thunderstorm Partly Cloudy
9:15 PM 73.4 °F - 71.6 °F 94% 29.98 in 5.0 mi NNW 3.5 mph - 0.22 in Thunderstorm Thunderstorm
9:35 PM 73.4 °F - 71.6 °F 94% 29.99 in 3.0 mi Calm Calm - 0.77 in Thunderstorm Thunderstorm
9:55 PM 71.6 °F - 66.2 °F 83% 29.98 in 5.0 mi West 5.8 mph - 1.41 in Thunderstorm Thunderstorm
10:15 PM 71.6 °F - 66.2 °F 83% 29.98 in 8.0 mi WSW 6.9 mph - 0.17 in Thunderstorm Thunderstorm
10:35 PM 71.6 °F - 68.0 °F 88% 30.01 in 8.0 mi North 10.4 mph - 0.24 in Thunderstorm Thunderstorm
10:55 PM 71.6 °F - 69.8 °F 94% 30.00 in 4.0 mi ENE 8.1 mph - 0.57 in Thunderstorm Thunderstorm
11:35 PM 73.4 °F - 68.0 °F 83% 29.96 in 3.0 mi Calm Calm - 1.84 in Thunderstorm Thunderstorm
11:55 PM 73.4 °F - 68.0 °F 83% 29.95 in 8.0 mi SSW 8.1 mph 17.3 mph 1.97 in Thunderstorm Thunderstorm